| time (UTC) | temp F | wind direction | speed MPH | gust MPH | rain 1hr in | rain 24hr in | rain mn in | humidity % | barometer mb |
| 20260509092004 | 53 | 65 | 0.0 | 0.0 | 0.00 | 0.00 | 0.00 | 3 | 833.9 |
| 20260509091004 | 53 | 39 | 0.0 | 0.0 | 0.00 | 0.00 | 0.00 | 3 | 900.9 |
| 20260509084003 | 53 | 39 | 0.0 | 0.0 | 0.00 | 0.00 | 0.00 | 3 | 900.9 |
| 20260509082004 | 53 | 38 | 0.0 | 0.0 | 0.00 | 0.00 | 0.00 | 3 | 900.9 |
| 20260509080004 | 53 | 38 | 0.0 | 0.0 | 0.00 | 0.00 | 0.00 | 3 | 900.9 |
| 20260509075004 | 53 | 38 | 0.0 | 0.0 | 0.00 | 0.00 | 0.00 | 3 | 900.9 |
| 20260509074004 | 53 | 38 | 0.0 | 0.0 | 0.00 | 0.00 | 0.00 | 3 | 900.9 |
| 20260509073004 | 53 | 38 | 0.0 | 0.0 | 0.00 | 0.00 | 0.00 | 3 | 900.9 |
| 20260509072004 | 53 | 33 | 0.0 | 0.0 | 0.00 | 0.00 | 0.00 | 3 | 900.9 |
| 20260509070004 | 53 | 40 | 0.0 | 0.0 | 0.00 | 0.00 | 0.00 | 3 | 900.9 |
| 20260509065004 | 54 | 43 | 0.0 | 0.0 | 0.00 | 0.00 | 0.00 | 3 | 900.9 |
| 20260509064004 | 54 | 8 | 0.0 | 0.0 | 0.00 | 0.00 | 0.00 | 3 | 900.9 |
| 20260509063004 | 54 | 267 | 0.0 | 0.0 | 0.00 | 0.00 | 0.00 | 3 | 900.9 |
| 20260509061004 | 54 | 266 | 0.0 | 0.0 | 0.00 | 0.00 | 0.00 | 8 | 900.9 |
| 20260509060004 | 53 | 266 | 0.0 | 0.0 | 0.00 | 0.00 | 0.00 | 10 | 900.9 |
| 20260509055004 | 53 | 269 | 0.0 | 0.0 | 0.00 | 0.00 | 0.00 | 18 | 900.9 |
| 20260509054004 | 53 | 265 | 0.0 | 0.0 | 0.00 | 0.00 | 0.00 | 20 | 900.9 |
| 20260509053004 | 53 | 265 | 0.0 | 0.0 | 0.00 | 0.00 | 0.00 | 22 | 900.9 |
| 20260509052004 | 54 | 265 | 0.0 | 0.0 | 0.00 | 0.00 | 0.00 | 23 | 900.9 |
| 20260509050004 | 55 | 256 | 0.0 | 1.0 | 0.00 | 0.00 | 0.00 | 27 | 900.9 |
| 20260509045004 | 55 | 306 | 0.0 | 0.0 | 0.00 | 0.00 | 0.00 | 29 | 900.9 |
| 20260509044004 | 55 | 274 | 0.0 | 2.0 | 0.00 | 0.00 | 0.00 | 32 | 900.9 |
| 20260509043004 | 55 | 254 | 0.0 | 0.0 | 0.00 | 0.00 | 0.00 | 35 | 900.9 |
| 20260509040004 | 57 | 321 | 0.0 | 3.0 | 0.00 | 0.00 | 0.00 | 45 | 900.9 |
| 20260509033004 | 58 | 269 | 0.0 | 6.0 | 0.00 | 0.00 | 0.00 | 54 | 900.9 |
| 20260509032004 | 59 | 280 | 0.0 | 6.0 | 0.00 | 0.00 | 0.00 | 56 | 888.6 |
| 20260509031004 | 59 | 271 | 0.0 | 5.0 | 0.00 | 0.00 | 0.00 | 59 | 888.6 |
| 20260509030004 | 60 | 299 | 0.0 | 9.0 | 0.00 | 0.00 | 0.00 | 61 | 888.6 |
| 20260509025004 | 61 | 283 | 0.0 | 6.0 | 0.00 | 0.00 | 0.00 | 63 | 888.6 |
| 20260509024004 | 61 | 270 | 1.0 | 7.0 | 0.00 | 0.00 | 0.00 | 64 | 888.6 |
| 20260509023004 | 62 | 293 | 2.0 | 7.0 | 0.00 | 0.00 | 0.00 | 65 | 886.2 |
| 20260509022003 | 63 | 286 | 5.0 | 10.0 | 0.00 | 0.00 | 0.00 | 65 | 886.2 |
| 20260509021004 | 64 | 287 | 3.0 | 12.0 | 0.00 | 0.00 | 0.00 | 65 | 891.9 |
| 20260509020004 | 65 | 294 | 6.0 | 12.0 | 0.00 | 0.00 | 0.00 | 65 | 891.9 |
| 20260509014004 | 66 | 283 | 4.0 | 13.0 | 0.00 | 0.00 | 0.00 | 64 | 898.4 |
| 20260509013004 | 67 | 282 | 3.0 | 12.0 | 0.00 | 0.00 | 0.00 | 63 | 901.4 |
| 20260509010004 | 69 | 285 | 6.0 | 16.0 | 0.00 | 0.00 | 0.00 | 61 | 877.3 |
| 20260509005004 | 70 | 287 | 7.0 | 15.0 | 0.00 | 0.00 | 0.00 | 60 | 877.3 |
| 20260509004004 | 71 | 279 | 6.0 | 13.0 | 0.00 | 0.00 | 0.00 | 59 | 1010.4 |
| 20260509003004 | 71 | 300 | 3.0 | 12.0 | 0.00 | 0.00 | 0.00 | 59 | 1010.4 |
| 20260509002004 | 72 | 293 | 2.0 | 15.0 | 0.00 | 0.00 | 0.00 | 59 | 825.2 |
| 20260509001003 | 72 | 297 | 5.0 | 12.0 | 0.00 | 0.00 | 0.00 | 57 | 825.2 |
| 20260509000004 | 72 | 277 | 4.0 | 15.0 | 0.00 | 0.00 | 0.00 | 57 | 825.2 |
| 20260508235004 | 73 | 271 | 8.0 | 16.0 | 0.00 | 0.00 | 0.00 | 56 | 825.2 |
| 20260508234004 | 73 | 276 | 5.0 | 14.0 | 0.00 | 0.00 | 0.00 | 56 | 825.2 |
| 20260508183004 | 67 | 220 | 7.0 | 12.0 | 0.00 | 0.00 | 0.00 | 54 | 845.9 |
| 20260508182004 | 66 | 221 | 6.0 | 12.0 | 0.00 | 0.00 | 0.00 | 47 | 845.9 |
| 20260508181004 | 65 | 303 | 1.0 | 10.0 | 0.00 | 0.00 | 0.00 | 26 | 845.9 |
| 20260508180003 | 62 | 224 | 7.0 | 12.0 | 0.00 | 0.00 | 0.00 | 3 | 845.9 |
| 20260508175004 | 61 | 252 | 2.0 | 12.0 | 0.00 | 0.00 | 0.00 | 3 | 845.9 |
| 20260508174003 | 60 | 211 | 3.0 | 7.0 | 0.00 | 0.00 | 0.00 | 3 | 845.9 |
| 20260508172004 | 57 | 3 | 0.0 | 0.0 | 0.00 | 0.00 | 0.00 | 3 | 845.9 |
| 20260508162004 | 54 | 131 | 0.0 | 0.0 | 0.00 | 0.00 | 0.00 | 3 | 884.3 |
| 20260508155004 | 54 | 119 | 0.0 | 0.0 | 0.00 | 0.00 | 0.00 | 3 | 884.3 |
| 20260508154004 | 54 | 120 | 0.0 | 0.0 | 0.00 | 0.00 | 0.00 | 3 | 884.3 |
| 20260508151004 | 53 | 121 | 0.0 | 3.0 | 0.00 | 0.00 | 0.00 | 3 | 884.3 |
| 20260508150004 | 53 | 121 | 0.0 | 0.0 | 0.00 | 0.00 | 0.00 | 3 | 884.3 |
| 20260508145004 | 53 | 121 | 0.0 | 0.0 | 0.00 | 0.00 | 0.00 | 3 | 884.3 |
| 20260508143004 | 53 | 0 | 0.0 | 0.0 | 0.00 | 0.00 | 0.00 | 3 | 884.3 |
| 20260508142004 | 53 | 0 | 0.0 | 0.0 | 0.00 | 0.00 | 0.00 | 3 | 884.3 |
| 20260508141004 | 53 | 0 | 0.0 | 0.0 | 0.00 | 0.00 | 0.00 | 3 | 884.3 |
| 20260508140004 | 53 | 0 | 0.0 | 0.0 | 0.00 | 0.00 | 0.00 | 3 | 884.3 |
| 20260508135004 | 53 | 0 | 0.0 | 0.0 | 0.00 | 0.00 | 0.00 | 3 | 884.3 |
| 20260508130004 | 53 | 0 | 0.0 | 0.0 | 0.00 | 0.00 | 0.00 | 3 | 884.3 |
| 20260508125004 | 53 | 0 | 0.0 | 0.0 | 0.00 | 0.00 | 0.00 | 3 | 917.4 |